Regional Weather Roundup
Issued by NWS

Home | Current Version | Previous Version | Text Only | Print | Product List | Glossary On
Versions: 1 2 3 4 5 6 7 8 9 10 11 12 13 14 15 16 17 18 19 20 21 22 23 24 25 26 27 28 29 30 31 32 33 34 35 36 37 38 39 40 41 42 43 44 45 46 47 48 49 50
000
ASUS44 KFWD 290601
RWRTX
NORTH TEXAS HOURLY WEATHER ROUNDUP
NATIONAL WEATHER SERVICE FORT WORTH TX
100 AM CDT FRI JUL 29 2016

NOTE: "FAIR" INDICATES FEW OR NO CLOUDS BELOW 12,000 FEET WITH NO
SIGNIFICANT WEATHER AND/OR OBSTRUCTIONS TO VISIBILITY.

TXZ118-119-290700-
DALLAS/FORT WORTH METROPLEX

CITY           SKY/WX    TMP DP  RH WIND       PRES   REMARKS
DFW AIRPORT    PTCLDY    80  71  74 S6        29.95R
6HR MIN TEMP:  79; 6HR MAX TEMP:  90;

DALLAS LOVE    MOCLDY    81  71  71 S9        29.96R
6HR MIN TEMP:  81; 6HR MAX TEMP:  92;

FTW MEACHAM    PTCLDY    81  72  74 SE7       29.95R
6HR MIN TEMP:  81; 6HR MAX TEMP:  87;

DAL-EXECUTIVE  CLOUDY    78  71  79 S5        29.96R
6HR MIN TEMP:  76; 6HR MAX TEMP:  79; 6HR PCP:  0.24;

FTW-ALLIANCE   MOCLDY    78  73  84 CALM      29.95R
6HR MIN TEMP:  77; 6HR MAX TEMP:  87;

FTW-NAS-JRB    PTCLDY    82  69  64 S8        29.95R
6HR MIN TEMP:  81; 6HR MAX TEMP:  90;

FTW-SPINKS     MOCLDY    77  72  85 S5        29.97R
6HR MIN TEMP:  77; 6HR MAX TEMP:  89;

ARLINGTON      MOCLDY    77  73  87 SE5       29.96R
6HR MIN TEMP:  77; 6HR MAX TEMP:  84; 6HR PCP: TRACE;

GRAND PRAIRIE  MOCLDY    79  71  78 S6        29.97S
6HR MIN TEMP:  78; 6HR MAX TEMP:  81;

ADDISON        PTCLDY    80  73  77 S7        29.98R
6HR MIN TEMP:  80; 6HR MAX TEMP:  92;

MESQUITE       CLOUDY    75  73  92 S6        29.96F
6HR MIN TEMP:  75; 6HR MAX TEMP:  84;

LANCASTER      CLOUDY    77  73  86 SE3       29.97S
6HR MIN TEMP:  76; 6HR MAX TEMP:  79;

$$

TXZ091>094-102>105-117-120-121-131>134-290700-
NORTH CENTRAL TEXAS

CITY           SKY/WX    TMP DP  RH WIND       PRES   REMARKS
SHRMAN/DENISON NOT AVBL
BOWIE          CLEAR     77  71  82 SE3       29.97S
6HR MIN TEMP:  77; 6HR MAX TEMP:  94;

BRIDGEPORT     CLEAR     74  72  92 E5        29.98R
6HR MIN TEMP:  74; 6HR MAX TEMP:  92;

DECATUR        CLEAR     75  70  83 CALM      29.97S
6HR MIN TEMP:  75; 6HR MAX TEMP:  91;

DENTON         PTCLDY    78  72  81 SE5       29.95S
6HR MIN TEMP:  78; 6HR MAX TEMP:  91;

MCKINNEY       CLEAR     77  72  84 SE5       29.97R
6HR MIN TEMP:  77; 6HR MAX TEMP:  88;

GREENVILLE     MOCLDY    77  70  78 S5        29.97S
ROCKWALL       CLOUDY    76  72  85 S9        29.96R
6HR MIN TEMP:  76; 6HR MAX TEMP:  88;

TERRELL        CLOUDY    77  73  87 S7        29.97R
6HR MIN TEMP:  76; 6HR MAX TEMP:  88;

WAXAHACHIE     CLOUDY    76  75  98 SE6       29.98S
CLEBURNE       CLOUDY    77  73  88 S7        29.98S
GRANBURY       MOCLDY    81  72  73 SE3       29.97R
6HR MIN TEMP:  77; 6HR MAX TEMP:  97; 6HR PCP:  0.32;

$$

TXZ083>090-098>101-113>116-127>130-139>142-154-155-290700-
WESTERN NORTH TEXAS

CITY           SKY/WX    TMP DP  RH WIND       PRES   REMARKS
WICHITA FALLS  CLEAR     79  70  74 S9        29.94S
6HR MIN TEMP:  78; 6HR MAX TEMP:  95;

WF-KICKAPOO    CLEAR     82  69  65 S5        29.95S
6HR MIN TEMP:  82; 6HR MAX TEMP:  98;

VERNON         CLEAR     81  64  56 SW3       29.96S
6HR MIN TEMP:  74; 6HR MAX TEMP: 100;

ABILENE        CLEAR     80  65  59 S9        30.00R
6HR MIN TEMP:  78; 6HR MAX TEMP:  88; 6HR PCP: TRACE;

ABILENE-DYESS  CLEAR     77  65  65 S12       29.97F
CISCO          CLEAR     81  68  65 S12       30.00S HAZE
GRAHAM         CLEAR     76  71  84 CALM      29.95R
6HR MIN TEMP:  76; 6HR MAX TEMP:  86;

MINERAL WELLS  PTCLDY    75  72  90 E5        29.95R
6HR MIN TEMP:  75; 6HR MAX TEMP:  80; 6HR PCP:  0.30;

STEPHENVILLE   CLOUDY    78  68  70 CALM      30.00S
6HR MIN TEMP:  78; 6HR MAX TEMP:  93;

COMANCHE       CLEAR     80  69  68 SW10G17   29.98F
6HR MIN TEMP:  79; 6HR MAX TEMP:  94;

BROWNWOOD      MOCLDY    79  66  65 S6        29.99S
COLEMAN        CLEAR     80  66  63 S13       30.01R
6HR MIN TEMP:  80; 6HR MAX TEMP:  95;

$$

TXZ143>147-156>162-174-175-290700-
CENTRAL TEXAS

CITY           SKY/WX    TMP DP  RH WIND       PRES   REMARKS
WACO           CLEAR     79  70  74 S8        29.98R
6HR MIN TEMP:  78; 6HR MAX TEMP:  87;

WACO-MCGREGOR  CLEAR     78  72  81 S6        29.97R
6HR MIN TEMP:  78; 6HR MAX TEMP:  86;

HILLSBORO      MOCLDY    78  69  72 SE8       29.98S
6HR MIN TEMP:  78; 6HR MAX TEMP:  87;

CORSICANA      PTCLDY    77  72  84 S10       29.99S
6HR MIN TEMP:  77; 6HR MAX TEMP:  80; 6HR PCP:  0.09;

MEXIA          CLOUDY    75  69  81 S8        29.99R
6HR MIN TEMP:  75; 6HR MAX TEMP:  82;

HEARNE         CLEAR     75  73  93 CALM      29.99S
6HR MIN TEMP:  74; 6HR MAX TEMP:  87;

CAMERON        CLEAR     76  72  86 S8        29.97S
6HR MIN TEMP:  76; 6HR MAX TEMP:  87;

KILLEEN        NOT AVBL
KILLEEN-SKYLRK CLEAR     78  72  81 S7        29.98S
6HR MIN TEMP:  78; 6HR MAX TEMP:  88;

HAMILTON       CLEAR     77  68  72 S9        30.00R
6HR MIN TEMP:  77; 6HR MAX TEMP:  94;

$$

TXZ095>097-106>112-122>126-135>138-148>153-164>167-290700-
EAST TEXAS

CITY           SKY/WX    TMP DP  RH WIND       PRES   REMARKS
PARIS          CLEAR     75  64  69 S5        29.97R
6HR MIN TEMP:  75; 6HR MAX TEMP:  86;

SULPHUR SPRNGS CLEAR     78  73  85 SW6       29.99R
6HR MIN TEMP:  78; 6HR MAX TEMP:  84;

MOUNT PLEASANT CLOUDY    74  74 100 CALM      29.99R
6HR MIN TEMP:  74; 6HR MAX TEMP:  79;

GILMER         PTCLDY    74  71  92 S6        29.97F
6HR MIN TEMP:  74; 6HR MAX TEMP:  77;

MINEOLA        MOCLDY    77  73  88 SE5       29.98S
TYLER          CLEAR     75  71  87 S6        29.98S
6HR MIN TEMP:  75; 6HR MAX TEMP:  83;

LONGVIEW       PTCLDY    73  72  96 S6        29.98R
6HR MIN TEMP:  73; 6HR MAX TEMP:  76;

MARSHALL       MOCLDY    70  68  93 CALM      30.01S
6HR MIN TEMP:  70; 6HR MAX TEMP:  70;

ATHENS         CLEAR     73  73 100 S5        29.97S
PALESTINE      PTCLDY    75  73  92 SE3       30.01R
JACKSONVILLE     N/A     73  72  98 S5        30.03R
HENDERSON      PTCLDY    73  73 100 S3        30.00S
6HR MIN TEMP:  73; 6HR MAX TEMP:  75;

CENTER         CLOUDY    75  73  96 S5        30.02R FOG
6HR MIN TEMP:  74; 6HR MAX TEMP:  75; 6HR PCP:  0.01;

NACOGDOCHES    PTCLDY   N/A N/A N/A S3        30.00R
LUFKIN         PTCLDY    73  72  96 S6        30.00S
6HR MIN TEMP:  73; 6HR MAX TEMP:  75;

$$

SUPPLEMENTAL OBSERVATIONS (CENTRAL)

CITY           SKY/WX    TMP DP  RH WIND       PRES   REMARKS
$$

SUPPLEMENTAL OBSERVATIONS (WEST)

CITY           SKY/WX    TMP DP  RH WIND       PRES   REMARKS
$$

SUPPLEMENTAL OBSERVATIONS (EAST)

CITY           SKY/WX    TMP DP  RH WIND       PRES   REMARKS
$$

SUPPLEMENTAL OBSERVATIONS ARE A COLLECTION OF AUTOMATED INSTRUMENTS
THAT ARE MAINTAINED BY A VARIETY OF FEDERAL AND STATE AGENCIES.
CERTAIN ELEMENTS...SUCH AS HUMIDITY VALUES AND SUSTAINED WIND
SPEEDS...MAY BE APPROXIMATED.





USA.gov is the U.S. government's official web portal to all federal, state and local government web resources and services.